Weather History for NFNA - January, 2001

Change the Weather History Date:

Thursday, January 4, 2001

  Actual Average Record
Temperature  
Mean Temperature 83 °F -  
Max Temperature 89 °F - - ()
Min Temperature 77 °F - - ()
Cooling Degree Days 18    
Growing Degree Days 33 (Base 50)    
Moisture  
Dew Point 76 °F    
Average Humidity 81    
Maximum Humidity 94    
Minimum Humidity 62    
Precipitation  
Precipitation 0.00 in - - ()
Sea Level Pressure  
Sea Level Pressure 29.85 in    
Wind  
Wind Speed 3 mph ()    
Max Wind Speed 15 mph    
Max Gust Speed -    
Visibility 12.4 miles    
Events Rain    
T = Trace of Precipitation, MM = Missing Value Source: Averaged Metar Reports

Daily Weather History Graph

Daily Weather History Graph

Search for Another Location

Airport or City:

Trip Planner

Search our weather history database for the weather conditions in past years. The results will help you decide how hot, cold, wet, or windy it might be!

Date:

Astronomy

Jan. 04, 2001 Rise Set
Actual Time 5:35 AM FJT 6:45 PM FJT
Civil Twilight 5:11 AM FJT 7:09 PM FJT
Nautical Twilight 4:42 AM FJT 7:38 PM FJT
Astronomical Twilight 4:13 AM FJT 8:07 PM FJT
Moon 1:05 PM FJT (1/4) 12:30 AM FJT (1/4)
Length of Visible Light 13h 58m
Length of Day
13h 10m
First Quarter, 61% of the Moon is Illuminated
Jan 4
First Quarter
Jan 10
Full
Jan 17
Last Quarter
Jan 25
New
Feb 2
First Quarter

Hourly Weather History & Observations

Time (FJT) Temp. Heat Index Dew Point Humidity Pressure Visibility Wind Dir Wind Speed Gust Speed Precip Events Conditions
12:00 AM 80.6 °F 87.1 °F 77.0 °F 89% 29.86 in 24.9 mi Calm Calm - N/A   Scattered Clouds
1:00 AM 80.6 °F 87.1 °F 77.0 °F 89% 29.83 in 24.9 mi Calm Calm - N/A   Scattered Clouds
2:00 AM 80.6 °F 87.1 °F 77.0 °F 89% 29.80 in 24.9 mi Calm Calm - N/A   Scattered Clouds
3:00 AM 80.6 °F 87.1 °F 77.0 °F 89% 29.80 in 24.9 mi Calm Calm - N/A   Scattered Clouds
4:00 AM 78.8 °F - 77.0 °F 94% 29.80 in 12.4 mi Calm Calm - N/A Rain Light Rain Showers
5:00 AM 77.0 °F - 75.2 °F 94% 29.83 in 31.1 mi Calm Calm - N/A   Scattered Clouds
6:00 AM 78.8 °F - 75.2 °F 89% 29.86 in 31.1 mi Calm Calm - N/A   Scattered Clouds
7:00 AM 78.8 °F - 75.2 °F 89% 29.86 in 31.1 mi Calm Calm - N/A   Scattered Clouds
8:00 AM 86.0 °F 96.9 °F 77.0 °F 74% 29.89 in 31.1 mi Calm Calm - N/A   Mostly Cloudy
11:00 AM 86.0 °F 96.9 °F 77.0 °F 74% 29.86 in 31.1 mi NE 13.8 mph - N/A   Mostly Cloudy
12:00 PM 87.8 °F 99.7 °F 77.0 °F 70% 29.86 in 31.1 mi NE 13.8 mph - N/A   Mostly Cloudy
1:00 PM 87.8 °F 99.7 °F 77.0 °F 70% 29.83 in 31.1 mi ENE 15.0 mph - N/A   Mostly Cloudy
2:00 PM 89.6 °F 99.8 °F 75.2 °F 62% 29.83 in 31.1 mi NE 15.0 mph - N/A   Mostly Cloudy
3:00 PM 87.8 °F 99.7 °F 77.0 °F 70% 29.83 in 31.1 mi ENE 13.8 mph - N/A   Scattered Clouds
4:00 PM 87.8 °F 99.7 °F 77.0 °F 70% 29.80 in 31.1 mi ENE 9.2 mph - N/A   Scattered Clouds
5:00 PM 86.0 °F 95.1 °F 75.2 °F 70% 29.83 in 31.1 mi East 9.2 mph - N/A   Scattered Clouds
6:00 PM 84.2 °F 92.3 °F 75.2 °F 74% 29.86 in 31.1 mi ENE 11.5 mph - N/A   Mostly Cloudy
7:00 PM 82.4 °F 89.5 °F 75.2 °F 79% 29.86 in 24.9 mi ENE 6.9 mph - N/A   Scattered Clouds
8:00 PM 82.4 °F 90.9 °F 77.0 °F 84% 29.89 in 24.9 mi ENE 5.8 mph - N/A   Scattered Clouds
9:00 PM 80.6 °F 86.2 °F 75.2 °F 84% 29.92 in 24.9 mi Calm Calm - N/A   Mostly Cloudy
10:00 PM 80.6 °F 86.2 °F 75.2 °F 84% 29.92 in 24.9 mi Calm Calm - N/A   Scattered Clouds
11:00 PM 78.8 °F - 77.0 °F 94% 29.92 in 24.9 mi Calm Calm - N/A   Mostly Cloudy